Location: Grasslands National Park East Block
(49.0708°N, 106.5295°W)
Time: 23:22:20
(UTC-06:00)

Vanguard 1 Rocket - Pass Details

Date: 01 October 2019
Orbit: 650 x 4226 km, 34.3° (Epoch: 13 October)

Event Time Altitude Azimuth Distance (km) Brightness Sun altitude
Rises 19:45:32 0° 268° (W) 8,457 14.3 -10.7°
Reaches altitude 10° 19:52:03 10° 263° (W) 7,278 13.3 -11.8°
Maximum altitude 20:13:08 44° 202° (SSW) 3,786 10.5 -15.2°
Enters shadow 20:24:57 13° 137° (SE) 4,356 10.4 -17.1°
Drops below altitude 10° 20:25:43 10° 135° (SE) 4,495 - -17.2°
Sets 20:28:40 0° 128° (SE) 5,112 - -17.6°
